www.pogodaiklimat.ru

Погода и климат >> Архив погоды >> Корея >> Тондучхон


ПОГОДА в Тондучхоне

  • Прогноз погоды в Тондучхоне
  • Монитор погоды в Тондучхоне

АРХИВ ПОГОДЫ в Тондучхоне

Время (UTC), дата Ветер
(напр.,м/с)
 
Видим.   Явления Облачность Т
(С)
Тd
(С)
f
(%)
Тe
(С)
Тes
(С)
Комфортность P
(гПа)
Po
(гПа)
Тmin
(С)
Tmax
(С)
R
(мм)
R24
(мм)
S
(см)
03 10.06 ЮВ 1 30 км 9// 600 м
[]
+20.3 +15.0 72 +24 +37 комфорт 1008.0 994.7
06 10.06 СВ 2 28 км 9/9 1000 м
[]
+21.0 +13.9 64 +25 +26 комфорт 1007.6 994.3
09 10.06 55 км н/о +20.3 +13.7 66 +24 +25 комфорт 1006.6 993.3
12 10.06 В 2 50 км 4/4 1500 м
[]
+17.3 +12.4 73 +18 +18 1008.7 995.2 +21.3 0.0
15 10.06 СВ 1 45 км 6/0
[]
+15.3 +11.2 77 +16 +16 1009.9 996.3
18 10.06 С 1 40 км 9/9 1500 м
[]
+14.1 +11.2 83 +14 +14 1009.8 996.2
21 10.06 С 1 30 км ясно +13.3 +11.0 86 +13 +14 1010.2 996.5
00 11.06 Ю 2 45 км 6/0
[]
+18.6 +11.1 62 +20 +27 1010.4 997.0 +13.1 0.0
03 11.06 50 км н/о +22.3 +11.6 51 +25 +28 комфорт 1009.5 996.3
06 11.06 С 2 45 км 9/9 1500 м
[]
+25.2 +12.4 45 +27 +33 жарко 1008.3 995.2
09 11.06 СЗ 1 40 км 1/1 1500 м
[]
+24.5 +11.4 44 +26 +29 жарко 1007.5 994.5
12 11.06 С 1 50 км 1/0
[]
+18.8 +13.2 70 +21 +21 комфорт 1008.7 995.4 +25.9
15 11.06 С 1 45 км 3/3 1500 м
[]
+15.8 +12.9 83 +16 +16 1010.5 996.9
18 11.06 С 1 13 км ясно +14.1 +12.8 92 +14 +14 1010.6 997.0
21 11.06 штиль 0 6000 м ясно +13.6 +12.8 95 +13 +14 1011.3 997.6
00 12.06 ЮЗ 1 13 км ясно +20.6 +15.5 73 +25 +37 комфорт 1011.4 998.0 +13.1
03 12.06 С 1 26 км ясно +25.2 +15.5 55 +28 +52 опасность
солнечного
удара
1010.5 997.4
06 12.06 З 3 40 км ясно +26.8 +15.4 50 +30 +42 душно 1009.1 996.1
09 12.06 З 4 35 км 3/0
[]
+24.5 +13.6 51 +27 +28 жарко 1009.0 996.0
12 12.06 З 1 23 км 8/0
[]
+20.8 +14.2 66 +25 +25 комфорт 1010.5 997.2 +27.8
15 12.06 В 1 29 км 3/0
[]
+17.7 +14.0 79 +19 +19 1011.4 997.9
18 12.06 21 км ясно +15.5 +13.8 90 1011.6 998.0
21 12.06 С 1 21 км ясно +14.5 +13.2 92 +15 +15 1011.5 997.9
00 13.06 Ю 2 12 км ясно +22.0 +15.1 65 +26 +36 душно 1011.8 998.5 +14.3
03 13.06 З 2 22 км 4/1 1000 м
[]
+26.3 +14.7 49 +29 +44 жарко 1010.7 997.6
06 13.06 З 3 27 км ясно +27.7 +16.3 50 +31 +44 душно 1008.6 995.6
09 13.06 З 5 35 км 6/0
[]
+26.1 +13.5 46 +28 +29 жарко 1007.9 994.9
12 13.06 штиль 0 23 км 8/0
[]
+21.8 +13.6 60 +25 +25 комфорт 1009.3 996.1 +28.5
15 13.06 штиль 0 22 км 9/0
[]
+18.7 +13.3 71 +19 +19 1009.1 995.7
18 13.06 СЗ 1 21 км ?/? +16.8 +13.5 81 +18 +18 1008.0 994.5
21 13.06 СВ 1 7000 м 10/3
[]
+16.2 +14.5 90 +17 +17 1007.9 994.4
00 14.06 штиль 0 9000 м ?/? +19.3 +15.5 79 +21 +24 комфорт 1007.8 994.5 +16.2
03 14.06 З 1 18 км 8/4 1500 м
[]
+25.1 +14.8 53 +28 +37 жарко 1006.7 993.6
06 14.06 З 2 28 км 4/0
[]
+27.2 +14.5 46 +30 +42 душно 1004.2 991.3
09 14.06 СЗ 2 30 км 8/0
[]
+25.2 +14.3 51 +28 +29 жарко 1003.0 990.0
12 14.06 СВ 1 26 км 5/1
[]
+21.1 +14.4 66 +24 +24 комфорт 1004.1 990.9
15 14.06 штиль 0 19 км 5/0
[]
+18.0 +14.4 79 +18 +18 1003.9 990.6
18 14.06 штиль 0 9000 м 6/0
[]
+16.4 +14.9 91 +16 +16 1002.5 989.1
21 14.06 С 1 2700 м ясно +15.8 +14.9 94 +16 +17 1002.5 989.0
00 15.06 С 2 13 км ясно +21.2 +16.1 73 +25 +35 комфорт 1002.3 989.1
03 15.06 СЗ 2 21 км 6/5 1000 м
[]
+25.0 +16.4 59 +28 +38 жарко 999.9 986.9
06 15.06 СЗ 3 30 км 4/4 1500 м
[]
+27.8 +16.1 49 +31 +39 душно 997.4 984.6
09 15.06 40 км н/о +17.3 +13.6 79 +17 +17 998.6 985.3
12 15.06 СВ 2 27 км 6/0
[]
+18.0 +14.6 81 +19 +19 1001.1 987.8 +28.3 2
15 15.06 СВ 1 30 км 4/0
[]
+16.8 +14.2 85 +18 +18 1003.2 989.8
18 15.06 СВ 1 40 км 1/0
[]
+16.0 +14.0 88 +17 +17 1003.8 990.3
21 15.06 СВ 1 23 км ясно +14.3 +13.5 95 +15 +15 1005.7 992.1
00 16.06 С 2 45 км ясно +21.5 +15.7 70 +25 +35 комфорт 1006.9 993.7 +14.0 0.0
03 16.06 СЗ 2 45 км 6/3 1500 м
[]
+23.9 +13.4 52 +26 +37 жарко 1006.8 993.7
06 16.06 З 2 45 км 8/4 1500 м
[]
+25.0 +13.8 50 +27 +33 жарко 1006.7 993.6
09 16.06 40 км н/о +26.1 +16.0 54 +29 +30 жарко 1006.9 993.9
12 16.06 штиль 0 35 км 8/3
[]
+20.7 +14.5 68 +23 +23 комфорт 1009.0 995.7
15 16.06 35 км н/о +18.7 +14.7 78 +20 +20 1010.2 996.8
18 16.06 В 1 21 км 10/4 1000 м
[]
+17.7 +15.5 87 +19 +19 1011.3 997.8
21 16.06 11 км н/о +17.6 +15.7 89 +18 +18 1011.8 998.3
00 17.06 Ю 1 29 км ясно +22.3 +15.6 66 +26 +38 жарко 1012.4 999.2

 

Местоположение метеостанции Тондучхон (Корея): широта 37.90 долгота 127.06 высота над уровнем моря 112 м.

В архиве по умолчанию представлена погода в Тондучхоне за последнюю неделю. Архивные данные за месяц целиком и за предыдущие месяцы, начиная с января 2011 года, Вы можете получить, выбрав интересующий диапазон дат из раскрывающегося списка и нажав кнопку "Ввод!".


*Определитесь, кто Вы:
робот инопланетянин человек

Внимание! Время в таблицах - всемирное. Для получения местного времени необходимо прибавить поправку, которая равна 9 ч.

Смотрите также архив погоды в соседних городах и на ближайших метеорологических станциях:

Погода в Мунсане (Корея) (26 км)
Погода в Букчунчеоне (Корея) (35 км)
Погода в Чхорвоне (Корея) (35 км)
Погода в Сеуле (Корея) (38 км)
Погода в Кэсоне (КНДР) (45 км)
Погода в Чунчоне (Корея) (57 км)
Погода в Чхунчхоне (Корея) (59 км)
Погода в Пхенганге (КНДР) (61 км)
Погода в Инчхоне (Корея) (61 км)
Погода в Сувоне (Корея) (70 км)

Пояснения к столбцам:

Ветер - указаны скорость ветра в м/с - средняя за 10 мин, порывы в срок и между сроками (в фигурных скобках) и направление, откуда дует ветер: С - северный, СВ - северо-восточный, В - восточный, ЮВ - юго-восточный, Ю - южный, ЮЗ - юго-западный, З - западный, СЗ - северо-западный.
Видимость - горизонтальная дальность видимости в метрах или километрах. При видимости от 1 до 10 км при отсутствии осадков обычно наблюдается дымка, при ухудшении видимости до 1 км и менее - туман. В сухую погоду видимость может ухудшаться дымом, пылью или мглою.
Явления - указаны атмосферные явления, наблюдавшиеся в срок или в последний час перед сроком; фигурными скобками обозначены явления, наблюдавшиеся между сроками (за 1-3 часа до срока); квадратными скобками обозначены град или гололедные отложения с указанием их диаметра в мм.
Облачность - указаны через наклонную черту общая и нижняя облачность в баллах и высота нижней границы облаков в метрах; квадратными скобками обозначены формы облаков: Ci - перистые, Cs - перисто-слоистые, Cc - перисто-кучевые, Ac - высококучевые, As - высокослоистые, Sc - слоисто-кучевые, Ns - слоисто-дождевые, Cu - кучевые, Cb - кучево-дождевые. Подробнее классификацию облаков см. в Атласе облаков (PDF).
T - Температура воздуха - температура, измеренная на высоте 2 м над землей.
Td - Температура точки росы - температура, при понижении до которой содержащийся в воздухе водяной пар достигнет насыщения.
f - Относительная влажность воздуха - влажноcть воздуха, измеренная на высоте 2 м над землей.
Te - Эффективная температура - температура, которую ощущает одетый по сезону человек в тени. Характеристика душности погоды. При расчете учитывается влияние влажности воздуха и скорости ветра на теплоощущения человека.
Tes - Эффективная температура на солнце - температура, которую ощущает человек, с поправкой на солнечный нагрев. Характеристика знойности погоды. Зависит от высоты солнца над горизонтом, облачности и скорости ветра. Ночью, в пасмурную погоду, а также при ветре 12 м/с и более поправка равна нулю.
P - Атмосферное давление - приведенное к уровню моря атмосферное давление.
Po - Атмосферное давление - измеренное на уровне метеостанции атмосферное давление.
Tmin - Минимальная температура - минимум температуры воздуха на высоте 2 м над землей.
Tmax - Максимальная температура - максимум температуры воздуха на высоте 2 м над землей.
R - Количество осадков - Количество выпавших осадков за период времени, мм. При наведении курсора мыши на число - период времени, за который выпало указанное количество осадков.
R24 - Количество осадков - Количество выпавших осадков за 24 часа, мм.
S - Снежный покров - Высота снежного покрова, см. При наведении курсора мыши на число - состояние снежного покрова и степень покрытия местности в баллах.